Skip Page Navigation
NASA JPL Caltech
NASA Logo - Jet Propulsion Laboratory + View the NASA Portal
+ Center for Near-Earth Object Studies
JPL Home Earth Solar System Stars & Galaxies Technology
JPL Solar System Dynamics
BODIES ORBITS EPHEMERIDES TOOLS PHYSICAL DATA DISCOVERY FAQ SITE MAP
IMPORTANT: The SSD Announcement email list is now available. Major changes are coming in the near future, including possible hostname and/or URL changes. To be notified of such changes, subscribe to this email list.

Please visit this page for more details.


JPL Small-Body Database Browser
Search: [ help ]  
359662 (2011 SQ76)
Classification: Main-belt Asteroid          SPK-ID: 2359662
Ephemeris | Orbit Diagram | Orbital Elements | Mission Design | Physical Parameters | Discovery Circumstances | Close-Approach Data ]

[ show orbit diagram ]
Orbital Elements at Epoch 2458600.5 (2019-Apr-27.0) TDB
Reference: JPL 7 (heliocentric ecliptic J2000)
 Element Value Uncertainty (1-sigma)   Units 
e .07938534247545008 2.8461e-07  
a 2.457763666612 2.6219e-08 au
q 2.262653256214289 6.9123e-07 au
i 6.226880515793103 1.3718e-05 deg
node 349.149755479834 6.13e-05 deg
peri 162.2918630080944 0.00010574 deg
M 203.9593090986564 7.1804e-05 deg
tp 2459210.519854343411
(2020-Dec-27.01985434)
0.00028313 TDB
period 1407.371027999832
3.85
2.252e-05
6.166e-08
d
yr
n .255796085636092 4.0931e-09 deg/d
Q 2.652874077009712 2.83e-08 au
  Orbit Determination Parameters
   # obs. used (total)      137  
   data-arc span      8419 days (23.05 yr)  
   first obs. used      1994-03-07  
   last obs. used      2017-03-25  
   planetary ephem.      DE431  
   SB-pert. ephem.      SB431-N16  
   condition code      0  
   norm. resid. RMS      .56482  
   source      ORB  
   producer      Otto Matic  
   solution date      2017-Apr-10 06:34:50  

Additional Information
 Earth MOID = 1.27413 au 
 Jupiter MOID = 2.33408 au 
 T_jup = 3.479 
[ show covariance matrix ]

Ephemeris | Orbit Diagram | Orbital Elements | Mission Design | Physical Parameters | Discovery Circumstances | Close-Approach Data ]

Physical Parameter Table
Parameter Symbol Value Units Sigma Reference Notes
absolute magnitude H 16.9   n/a MPO418820  

359662 (2011 SQ76)          Discovered 1996-Nov-04 by Spacewatch at Kitt Peak
Reference: 20130327/Numbers.arcLast Updated: 2013-03-29

[ show close-approach data ]
Alternate Designations
 2011 SQ76 = 1996 VB12 
Ephemeris | Orbit Diagram | Orbital Elements | Mission Design | Physical Parameters | Discovery Circumstances | Close-Approach Data ]
ABOUT SSD CREDITS/AWARDS PRIVACY/COPYRIGHT GLOSSARY LINKS
FirstGov
(server date/time)  
NASA Home Page
Site Manager:   Ryan S. Park
Webmaster  Alan B. Chamberlin